CW1172 Weather Reports


time (UTC)temp
C
wind
direction
speed
KPH
gust
KPH
rain 1hr
cm
rain 24hr
cm
rain mn
cm
humidity
%
barometer
mb
20260506011527 0 116 0.0 0.0 0.00 0.00 0.00 85 1011.3
20260506010025 0 155 0.0 0.0 0.00 0.00 0.00 84 1011.3
20260506004521 0 134 0.0 0.0 0.00 0.00 0.00 85 1011.3
20260506003020 0 132 0.0 0.0 0.00 0.00 0.00 84 1011.1
20260506001519 0 128 0.0 0.0 0.00 0.00 0.00 83 1011.2
20260506000018 0 119 0.0 0.0 0.00 0.00 0.00 83 1011.3
20260505234519 0 121 0.0 0.0 0.00 0.00 0.00 83 1011.2
20260505233025 0 121 0.0 0.0 0.00 0.00 0.00 82 1011.2
20260505231515 0 120 0.0 0.0 0.00 0.00 0.00 82 1011.3
20260505230014 0 121 0.0 0.0 0.00 0.00 0.00 81 1011.3
20260505224514 0 132 0.0 0.0 0.00 0.00 0.00 80 1011.5
20260505223011 0 166 0.0 0.0 0.00 0.00 0.00 79 1011.7
20260505221510 0 166 0.0 0.0 0.00 0.00 0.00 78 1011.7
20260505220022 0 167 0.0 0.0 0.00 0.00 0.00 78 1011.6
20260505214507 1 167 0.0 0.0 0.00 0.00 0.00 77 1011.8
20260505213005 1 166 0.0 0.0 0.00 0.00 0.00 76 1011.7
20260505211503 1 167 0.0 0.0 0.00 0.00 0.00 74 1011.8
20260505210001 2 167 0.0 0.0 0.00 0.00 0.00 73 1011.5
20260505204503 2 165 0.0 0.0 0.00 0.00 0.00 71 1011.5
20260505203108 3 219 0.0 0.0 0.00 0.00 0.00 70 1011.4
20260505201556 3 219 0.0 0.0 0.00 0.00 0.00 69 1011.4
20260505200108 4 221 0.0 0.0 0.00 0.00 0.00 68 1011.5
20260505194556 5 219 0.0 0.0 0.00 0.00 0.00 65 1011.4
20260505193103 6 219 0.0 0.0 0.00 0.00 0.00 63 1011.3
20260505191604 6 219 0.0 0.0 0.00 0.00 0.00 59 1011.3
20260505190052 7 218 0.0 0.0 0.00 0.00 0.00 59 1011.2
20260505184551 7 360 0.0 0.0 0.00 0.00 0.00 56 1010.9
20260505183050 8 316 0.0 0.0 0.00 0.00 0.00 54 1010.8
20260505181555 8 288 0.0 0.0 0.00 0.00 0.00 51 1010.8
20260505180048 8 360 0.0 0.0 0.00 0.00 0.00 47 1010.8
20260505174548 9 301 0.0 0.0 0.00 0.00 0.00 43 1010.7
20260505173046 10 292 0.0 0.0 0.00 0.00 0.00 37 1010.6
20260505171547 11 171 0.0 0.0 0.00 0.00 0.00 35 1010.6
20260505170046 11 306 0.0 0.0 0.00 0.00 0.00 33 1010.5
20260505164549 12 360 0.0 0.0 0.00 0.00 0.00 32 1010.5
20260505163045 11 309 0.0 0.0 0.00 0.00 0.00 35 1010.5
20260505161547 11 244 0.0 0.0 0.00 0.00 0.00 34 1010.5
20260505153043 11 269 0.0 0.0 0.00 0.00 0.00 35 1010.5
20260505151543 11 263 0.0 0.0 0.00 0.00 0.00 38 1010.6
20260505124549 11 259 0.0 0.0 0.00 0.00 0.00 40 1010.6
20260505123040 11 360 0.0 0.0 0.00 0.00 0.00 37 1010.7
20260505121543 11 276 0.0 0.0 0.00 0.00 0.00 39 1010.7
20260505120040 11 344 0.0 0.0 0.00 0.00 0.00 36 1010.4
20260505114539 11 360 0.0 0.0 0.00 0.00 0.00 33 1010.5
20260505113039 11 277 0.0 0.0 0.00 0.00 0.00 36 1010.5
20260505111540 11 360 0.0 0.0 0.00 0.00 0.00 38 1010.4
20260505101544 12 327 0.0 0.0 0.00 0.00 0.00 35 1010.3
20260505100037 11 334 0.0 0.0 0.00 0.00 0.00 33 1010.3
20260505094534 11 318 0.0 0.0 0.00 0.00 0.00 36 1010.3
20260505093034 11 278 0.0 0.0 0.00 0.00 0.00 36 1010.2
20260505091536 11 282 0.0 0.0 0.00 0.00 0.00 40 1010.1
20260505090041 11 360 0.0 0.0 0.00 0.00 0.00 40 1010.0
20260505084543 10 258 0.0 0.0 0.00 0.00 0.00 40 1009.7
20260505083031 11 319 0.0 0.0 0.00 0.00 0.00 43 1009.6
20260505081530 10 265 0.0 0.0 0.00 0.00 0.00 43 1009.6
20260505080040 10 235 0.0 0.0 0.00 0.00 0.00 42 1009.6
20260505074526 10 237 0.0 0.0 0.00 0.00 0.00 44 1009.6
20260505073029 10 360 0.0 0.0 0.00 0.00 0.00 45 1009.5
20260505071518 9 296 0.0 0.0 0.00 0.00 0.00 48 1009.5
20260505070015 8 329 0.0 0.0 0.00 0.00 0.00 48 1009.4
20260505064515 8 360 0.0 0.0 0.00 0.00 0.00 50 1009.3
20260505063014 7 327 0.0 0.0 0.00 0.00 0.00 50 1009.3
20260505061513 7 325 0.0 0.0 0.00 0.00 0.00 52 1009.3
20260505060013 6 360 0.0 0.0 0.00 0.00 0.00 54 1009.3
20260505054511 6 360 0.0 0.0 0.00 0.00 0.00 55 1009.3
20260505053010 5 360 0.0 0.0 0.00 0.00 0.00 57 1009.1
20260505051510 5 315 0.0 0.0 0.00 0.00 0.00 58 1009.0
20260505041504 4 304 0.0 0.0 0.00 0.00 0.00 63 1008.5
20260505040001 4 298 0.0 0.0 0.00 0.00 0.00 66 1008.4
20260505034601 5 298 0.0 0.0 0.00 0.00 0.00 64 1008.3
20260505033100 5 360 0.0 0.0 0.00 0.00 0.00 64 1008.3
20260505031601 5 329 0.0 0.0 0.00 0.00 0.00 66 1008.2
20260505030059 6 360 0.0 0.0 0.00 0.00 0.00 64 1008.1
20260505024555 6 311 0.0 0.0 0.00 0.00 0.00 65 1007.9
20260505023052 6 264 0.0 0.0 0.00 0.00 0.00 67 1007.9
20260505021549 6 294 0.0 0.0 0.00 0.00 0.00 68 1007.7
20260505020051 6 294 0.0 0.0 0.00 0.00 0.00 68 1007.7
20260505014602 7 307 0.0 0.0 0.00 0.00 0.00 69 1007.7
20260505013047 7 322 0.0 0.0 0.00 0.00 0.00 69 1007.6